Weather History for Marshall, MI

Change the Weather History Date:

Sunday, February 23, 2014

  Actual Average (KBTL) Record (KBTL)
Temperature  
Mean Temperature 20 °F 28 °F  
Max Temperature 26 °F 38 °F 44 °F (1998)
Min Temperature 15 °F 19 °F 8 °F (2011)
Degree Days  
Heating Degree Days 44 37  
Month to date heating degree days 903  
Since 1 July heating degree days 4786  
Cooling Degree Days 0 0  
Month to date cooling degree days 0  
Year to date cooling degree days 0  
Moisture  
Dew Point 12 °F    
Average Humidity 66    
Maximum Humidity 78    
Minimum Humidity 52    
Precipitation  
Precipitation 0.00 in 0.05 in 0.14 in (2012)
Month to date precipitation 1.05  
Year to date precipitation 2.71  
Sea Level Pressure  
Sea Level Pressure 30.04 in    
Wind  
Wind Speed 9 mph (West)    
Max Wind Speed 20 mph    
Max Gust Speed 25 mph    
Visibility 10 miles    
Events      
T = Trace of Precipitation, MM = Missing Value Source: NWS Daily Summary

Daily Weather History Graph

Daily Weather History Graph

Search for Another Location

Airport:

Trip Planner

Search our weather history database for the weather conditions in past years. The results will help you decide how hot, cold, wet, or windy it might be!

Date:

Astronomy

Feb. 23, 2014 Rise Set
Actual Time 7:24 AM EST 6:22 PM EST
Civil Twilight 6:56 AM EST 6:50 PM EST
Nautical Twilight 6:23 AM EST 7:23 PM EST
Astronomical Twilight 5:51 AM EST 7:55 PM EST
Moon 2:25 AM EST (2/23) 12:20 PM EST (2/23)
Length of Visible Light 11h 54m
Length of Day
10h 57m
Last Quarter, 39% of the Moon is Illuminated
Feb 23
Last Quarter
Mar 1
New
Mar 8
First Quarter
Mar 16
Full
Mar 23
Last Quarter

Hourly Weather History & Observations

Time (EST) Temp. Windchill Dew Point Humidity Pressure Visibility Wind Dir Wind Speed Gust Speed Precip Events Conditions
12:14 AM 25.9 °F 17.4 °F 14.9 °F 63% 29.97 in 10.0 mi West 8.1 mph - N/A   Clear
12:34 AM 25.7 °F 17.1 °F 14.9 °F 64% 29.97 in 10.0 mi West 8.1 mph - N/A   Clear
12:54 AM 25.2 °F 17.3 °F 14.9 °F 65% 29.97 in 10.0 mi West 6.9 mph - N/A   Clear
1:13 AM 25.0 °F 18.1 °F 14.5 °F 65% 29.98 in 10.0 mi WNW 5.8 mph - N/A   Clear
1:34 AM 24.3 °F 16.3 °F 14.4 °F 66% 29.98 in 10.0 mi West 6.9 mph - N/A   Clear
1:54 AM 23.0 °F 13.9 °F 13.6 °F 67% 29.98 in 10.0 mi West 8.1 mph - N/A   Clear
2:14 AM 22.3 °F 13.0 °F 13.1 °F 68% 29.98 in 10.0 mi WNW 8.1 mph - N/A   Clear
2:34 AM 21.7 °F 13.2 °F 12.7 °F 68% 29.98 in 10.0 mi WNW 6.9 mph - N/A   Clear
2:54 AM 21.0 °F 12.4 °F 12.2 °F 69% 29.99 in 10.0 mi West 6.9 mph - N/A   Clear
3:13 AM 19.9 °F 11.1 °F 11.7 °F 70% 29.99 in 10.0 mi West 6.9 mph - N/A   Clear
3:34 AM 19.0 °F 11.1 °F 11.3 °F 72% 29.99 in 10.0 mi West 5.8 mph - N/A   Clear
3:54 AM 18.7 °F 10.6 °F 11.3 °F 73% 29.99 in 10.0 mi WSW 5.8 mph - N/A   Clear
4:13 AM 17.4 °F 8.0 °F 10.2 °F 73% 29.99 in 10.0 mi West 6.9 mph - N/A   Clear
4:34 AM 17.6 °F 9.3 °F 10.6 °F 74% 29.99 in 10.0 mi WSW 5.8 mph - N/A   Clear
4:54 AM 17.6 °F 9.3 °F 10.8 °F 75% 30.00 in 10.0 mi WSW 5.8 mph - N/A   Clear
5:14 AM 15.8 °F 7.2 °F 9.7 °F 77% 30.00 in 10.0 mi WSW 5.8 mph - N/A   Clear
5:34 AM 16.9 °F 7.4 °F 10.6 °F 76% 30.01 in 10.0 mi WSW 6.9 mph - N/A   Clear
5:54 AM 17.8 °F 7.5 °F 11.5 °F 76% 30.02 in 10.0 mi West 8.1 mph - N/A   Clear
6:14 AM 18.5 °F 9.3 °F 12.2 °F 76% 30.03 in 10.0 mi West 6.9 mph - N/A   Clear
6:34 AM 18.5 °F 8.4 °F 12.4 °F 77% 30.03 in 10.0 mi West 8.1 mph - N/A   Clear
6:54 AM 19.0 °F 10.0 °F 12.7 °F 76% 30.03 in 10.0 mi West 6.9 mph - N/A   Clear
7:14 AM 18.9 °F 10.8 °F 12.7 °F 77% 30.03 in 10.0 mi WSW 5.8 mph - N/A   Scattered Clouds
7:34 AM 18.5 °F 9.3 °F 12.6 °F 78% 30.04 in 10.0 mi WSW 6.9 mph - N/A   Scattered Clouds
7:54 AM 18.1 °F 8.9 °F 12.4 °F 78% 30.05 in 10.0 mi West 6.9 mph - N/A   Clear
8:14 AM 18.5 °F 9.3 °F 12.7 °F 78% 30.06 in 10.0 mi West 6.9 mph - N/A   Clear
8:34 AM 19.0 °F 8.2 °F 13.1 °F 78% 30.07 in 10.0 mi West 9.2 mph - N/A   Clear
8:54 AM 19.9 °F 8.6 °F 13.5 °F 76% 30.07 in 10.0 mi West 10.4 mph - N/A   Scattered Clouds
9:14 AM 20.5 °F 10.0 °F 13.5 °F 74% 30.07 in 10.0 mi West 9.2 mph - N/A   Clear
9:34 AM 21.0 °F 8.6 °F 13.1 °F 71% 30.07 in 10.0 mi West 12.7 mph - N/A   Clear
9:54 AM 21.7 °F 9.6 °F 13.6 °F 71% 30.06 in 10.0 mi West 12.7 mph - N/A   Clear
10:14 AM 21.7 °F 8.5 °F 13.5 °F 70% 30.07 in 10.0 mi West 15.0 mph - N/A   Scattered Clouds
10:34 AM 22.6 °F 9.6 °F 13.1 °F 67% 30.07 in 10.0 mi WSW 15.0 mph - N/A   Clear
10:53 AM 22.8 °F 9.4 °F 12.7 °F 65% 30.07 in 10.0 mi West 16.1 mph - N/A   Clear
11:14 AM 23.2 °F 12.0 °F 13.5 °F 66% 30.07 in 10.0 mi WSW 11.5 mph - N/A   Clear
11:34 AM 23.7 °F 12.1 °F 13.3 °F 64% 30.07 in 10.0 mi West 12.7 mph 21.9 mph N/A   Clear
11:53 AM 24.6 °F 12.2 °F 13.8 °F 64% 30.07 in 10.0 mi West 15.0 mph 20.7 mph N/A   Clear
12:14 PM 24.8 °F 12.9 °F 13.1 °F 61% 30.07 in 10.0 mi WSW 13.8 mph 20.7 mph N/A   Clear
12:34 PM 25.3 °F 12.6 °F 13.5 °F 61% 30.06 in 10.0 mi West 16.1 mph 19.6 mph N/A   Clear
12:54 PM 25.9 °F 13.8 °F 12.7 °F 58% 30.06 in 10.0 mi West 15.0 mph 21.9 mph N/A   Clear
1:14 PM 26.4 °F 15.0 °F 13.8 °F 59% 30.06 in 10.0 mi West 13.8 mph 19.6 mph N/A   Clear
1:34 PM 26.4 °F 14.0 °F 12.7 °F 56% 30.06 in 10.0 mi West 16.1 mph 20.7 mph N/A   Clear
1:54 PM 26.4 °F 13.6 °F 12.0 °F 55% 30.05 in 10.0 mi WSW 17.3 mph 25.3 mph N/A   Clear
2:14 PM 26.2 °F 14.2 °F 12.2 °F 55% 30.05 in 10.0 mi West 15.0 mph 23.0 mph N/A   Clear
2:34 PM 25.9 °F 14.3 °F 11.8 °F 55% 30.05 in 10.0 mi West 13.8 mph - N/A   Clear
2:54 PM 26.1 °F 13.1 °F 10.9 °F 53% 30.05 in 10.0 mi West 17.3 mph 21.9 mph N/A   Clear
3:14 PM 25.7 °F 11.9 °F 11.1 °F 54% 30.05 in 10.0 mi West 19.6 mph 24.2 mph N/A   Clear
3:34 PM 25.7 °F 13.1 °F 10.9 °F 54% 30.05 in 10.0 mi West 16.1 mph - N/A   Clear
3:54 PM 25.7 °F 13.1 °F 11.3 °F 55% 30.06 in 10.0 mi West 16.1 mph 20.7 mph N/A   Clear
4:14 PM 25.7 °F 14.6 °F 11.1 °F 54% 30.06 in 10.0 mi West 12.7 mph 19.6 mph N/A   Clear
4:34 PM 25.7 °F 14.6 °F 10.9 °F 54% 30.05 in 10.0 mi West 12.7 mph 18.4 mph N/A   Clear
4:54 PM 25.3 °F 12.2 °F 9.9 °F 52% 30.05 in 10.0 mi West 17.3 mph 23.0 mph N/A   Clear
5:14 PM 24.8 °F 11.9 °F 9.5 °F 52% 30.06 in 10.0 mi West 16.1 mph 20.7 mph N/A   Clear
5:33 PM 23.9 °F 11.7 °F 10.2 °F 56% 30.06 in 10.0 mi West 13.8 mph - N/A   Clear
5:54 PM 23.0 °F 12.4 °F 10.4 °F 59% 30.06 in 10.0 mi West 10.4 mph - N/A   Clear
6:14 PM 22.1 °F 10.0 °F 9.7 °F 59% 30.06 in 10.0 mi West 12.7 mph - N/A   Clear
6:33 PM 20.8 °F 9.0 °F 9.5 °F 62% 30.06 in 10.0 mi West 11.5 mph - N/A   Clear
6:54 PM 20.3 °F 8.3 °F 9.5 °F 63% 30.07 in 10.0 mi West 11.5 mph - N/A   Clear
7:14 PM 19.6 °F 8.1 °F 9.5 °F 65% 30.07 in 10.0 mi WSW 10.4 mph - N/A   Clear
7:34 PM 19.2 °F 8.4 °F 9.1 °F 65% 30.07 in 10.0 mi WSW 9.2 mph - N/A   Clear
7:54 PM 18.9 °F 8.0 °F 9.5 °F 67% 30.06 in 10.0 mi WSW 9.2 mph - N/A   Clear
8:14 PM 18.7 °F 7.8 °F 9.1 °F 66% 30.06 in 10.0 mi WSW 9.2 mph - N/A   Clear
8:34 PM 18.1 °F 5.6 °F 9.1 °F 68% 30.06 in 10.0 mi WSW 11.5 mph - N/A   Clear
8:54 PM 18.1 °F 7.1 °F 9.1 °F 68% 30.06 in 10.0 mi WSW 9.2 mph - N/A   Clear
9:14 PM 17.8 °F 6.6 °F 8.8 °F 68% 30.06 in 10.0 mi WSW 9.2 mph - N/A   Clear
9:34 PM 18.0 °F 6.9 °F 8.8 °F 67% 30.06 in 10.0 mi WSW 9.2 mph - N/A   Clear
9:54 PM 18.3 °F 6.6 °F 8.8 °F 66% 30.06 in 10.0 mi WSW 10.4 mph - N/A   Clear
10:14 PM 17.8 °F 6.6 °F 8.6 °F 67% 30.06 in 10.0 mi West 9.2 mph - N/A   Clear
10:34 PM 18.1 °F 5.6 °F 9.1 °F 68% 30.06 in 10.0 mi West 11.5 mph - N/A   Clear
10:53 PM 18.3 °F 5.9 °F 9.5 °F 68% 30.06 in 10.0 mi West 11.5 mph - N/A   Clear
11:14 PM 17.6 °F 6.4 °F 9.3 °F 70% 30.06 in 10.0 mi West 9.2 mph - N/A   Clear
11:34 PM 17.2 °F 6.8 °F 9.1 °F 71% 30.06 in 10.0 mi West 8.1 mph - N/A   Mostly Cloudy
11:54 PM 18.0 °F 7.7 °F 10.0 °F 71% 30.06 in 10.0 mi West 8.1 mph - N/A   Overcast